Hourly Data Report for May 08, 2006

TORONTO CITY
ONTARIO

43°40'00.000" N
79°24'00.000" W
112.50 m
6158355
71508
XTO

Download Data

Hourly Data (May 2006)
Hourly Data Report for May 8, 2006
TIME
LST
Temp Definition
°C
Dew Point Definition
°C
Rel Hum Definition
%
Precip. Amount Definition
mm

Wind Dir Definition
10's deg

Wind Spd Definition
km/h
Visibility Definition
km
Stn Press Definition
kPa
Hmdx Definition


Wind Chill Definition


Weather Definition


00:00 8.6 2.7 66   LegendMM LegendMM   100.42     LegendNANA
01:00 8.0 3.1 71   LegendMM LegendMM   100.41     LegendNANA
02:00 7.7 3.0 72   LegendMM LegendMM   100.38     LegendNANA
03:00 7.5 2.8 72   LegendMM LegendMM   100.38     LegendNANA
04:00 7.3 2.5 72   LegendMM LegendMM   100.40     LegendNANA
05:00 6.7 2.8 76   LegendMM LegendMM   100.46     LegendNANA
06:00 7.4 3.7 77   LegendMM LegendMM   100.51     LegendNANA
07:00 9.6 4.2 69   LegendMM LegendMM   100.53     LegendNANA
08:00 13.0 3.5 52   LegendMM LegendMM   100.54     LegendNANA
09:00 14.5 5.9 56   LegendMM LegendMM   100.53     LegendNANA
10:00 16.0 3.5 43   LegendMM LegendMM   100.52     LegendNANA
11:00 17.4 0.5 32   LegendMM LegendMM   100.49     LegendNANA
12:00 19.4 2.5 32   LegendMM LegendMM   100.44     LegendNANA
13:00 19.4 -0.3 27   LegendMM LegendMM   100.40     LegendNANA
14:00 20.7 1.3 27   LegendMM LegendMM   100.38     LegendNANA
15:00 21.3 -1.5 22   LegendMM LegendMM   100.34     LegendNANA
16:00 21.6 1.8 27   LegendMM LegendMM   100.29     LegendNANA
17:00 21.0 1.2 27   LegendMM LegendMM   100.25     LegendNANA
18:00 15.8 2.2 40   LegendMM LegendMM   100.25     LegendNANA
19:00 15.9 -1.4 31   LegendMM LegendMM   100.24     LegendNANA
20:00 15.3 -1.5 32   LegendMM LegendMM   100.27     LegendNANA
21:00 15.1 -0.9 33   LegendMM LegendMM   100.32     LegendNANA
22:00 14.7 -0.2 36   LegendMM LegendMM   100.33     LegendNANA
23:00 13.2 0.8 43   LegendMM LegendMM   100.30     LegendNANA

Notes on Data Quality.

Legend

  • E = Estimated
  • M = Missing
  • NA = Not Available*
  • [empty] = Indicates an unobserved value
Date modified: